{"data":{"norad_id":53465,"epoch":"2026-05-25T01:11:15.194688Z","epoch_age_seconds":73925,"freshness":"FRESH","line1":"1 53465U 22099A   26145.04948142  .00000933  00000+0  68729-4 0  9995","line2":"2 53465  97.4480 266.1119 0001826 121.6187 238.5218 15.05646749207528","mean_motion":15.05646749,"eccentricity":0.0001826,"inclination_deg":97.448,"raan_deg":266.1119,"arg_perigee_deg":121.6187,"mean_anomaly_deg":238.5218,"bstar":6.8729e-5,"rev_number":20752,"period_min":95.63996342146,"perigee_km":548.25613580341,"apogee_km":550.78611655109,"semimajor_km":6927.6581261772,"source":"CELESTRAK","updated_at":"2026-05-25T13:38:17.407949Z"}}